星链-2527 (STARLINK-2527 )

导读 | 豆包AI

STARLINK-2527是美国SpaceX星链项目的低轨通信卫星,于北京时间2021年4月29日发射入轨,运行于约550公里高度近地轨道。它搭载相控阵天线与氩气推进系统,依托星链星座实现全球低时延宽带互联网覆盖,可支持视频通话、直连手机等场景,相比传统同步卫星大幅降低传输时延,是星链全球通信组网的重要组成单元。

基本信息
目录编号:
48324
目录名称:
STARLINK-2527
国际标识:
2021-036BA
轨道中心:
EARTH
卫星名称:
星链-2527
卫星全名:
星链-2527 (STARLINK-2527 )
卫星状态:
已陨落 最后检测时间 2024-05-14
发射日期:
2021-04-29 UTC
国别 :
美国 (US)
星等 :
--
轨道信息
数据来源 国际轨道数据
星历时间: 2024-05-15T04:35:42+0800
轨道信息已过期715天
半长轴: 6574.254km
偏心率: 0.000253
轨道倾角: 53.045°
近地点辐角 331.961°
升交点赤经 158.023°
平近点角 167.865°
近地点: 194.455km
远地点: 197.783km
周期: 88.416分钟
每日圈数: 16.286698
详细信息
固有亮度:
5
最大亮度:
2.5
卫星平台:
Starlink V1.0
覆盖范围:
全球
运营商:
太空探索技术公司
运营商所在国:
美国
制造商(研发单位):
太空探索技术公司
制造商所在国:
美国
使用方式:
暂无
卫星简介
星链(Starlink)计划是由太空探索技术公司(SpaceX)提出的一个巨型低轨卫星互联网星座项目,计划在2019年至2024年间在太空搭建由约1.2万颗卫星组成的“星链”网络,其中1584颗将部署在地球上空550千米处的近地轨道,并从2020年开始工作。该卫星已陨落。